Language: 


Des rapports , des résumés tant et plus, au choix de chacun....


Données statistiques de la station
Quotidien Rapport Février 3, 2018 Unités:  Anglais    Métrique   les deux
« Précédent Jour
Suivant Jour »
Quotidien Hebdomadaire Mensuel Annuel Actuel
  Haut: Bas: Moyen:
Température: TemperatureC °F 1.9 °F 3.8 °F
Pt de rosée: DewpointC °F 2.0 °F 3.6 °F
Humidité: Humidity % 86 % 96 %
Vitesse du vent: WindSpeedKMH mph 0.0 mph 1.5 mph
Rafales: WindSpeedGustKMH mph - -
Vent:- - SW
Pression: PressurehPa in 1003.9 in -
Précipitation: 2.5 in    
Historical Graphs
 
 
Données statistiques pour Février 3, 2018
Heure Température Point de rosée Pression Vent Vitesse du vent Refales Humidité Pluie (taux horaire)
TemperatureC °F DewpointC °F PressurehPa in Calm     Humidity % HourlyPrecipMM in
00:03 1.9 °F 2.0 °F 1009.0 in Calm     98 % 0.0 in
00:08 2.0 °F 2.0 °F 1009.0 in Calm     98 % 0.0 in
00:13 2.1 °F 2.0 °F 1009.0 in Calm     98 % 0.0 in
00:18 2.2 °F 2.0 °F 1009.0 in West 4.7 mph 4.7 mph 98 % 0.0 in
00:23 2.4 °F 3.0 °F 1009.0 in Calm   4.7 mph 98 % 0.0 in
00:25 2.4 °F 3.0 °F 1009.0 in Calm   4.7 mph 98 % 0.0 in
00:30 2.6 °F 3.0 °F 1009.0 in West 4.3 mph 4.3 mph 98 % 0.0 in
00:36 2.7 °F 3.0 °F 1009.0 in Calm   4.3 mph 98 % 0.0 in
00:41 2.7 °F 3.0 °F 1009.0 in Calm   4.0 mph 98 % 0.0 in
00:46 2.8 °F 3.0 °F 1009.0 in Calm   5.8 mph 98 % 0.0 in
00:51 2.8 °F 3.0 °F 1009.0 in Calm   5.8 mph 98 % 0.0 in
00:56 2.9 °F 3.0 °F 1009.0 in Calm   5.0 mph 98 % 0.0 in
01:01 2.9 °F 3.0 °F 1009.0 in Calm   5.0 mph 98 % 0.0 in
01:06 2.8 °F 3.0 °F 1009.0 in Calm     98 % 0.0 in
01:11 2.7 °F 3.0 °F 1009.0 in West 2.1 mph 4.0 mph 98 % 0.0 in
01:16 2.6 °F 3.0 °F 1009.0 in Calm   4.0 mph 98 % 0.0 in
01:21 2.5 °F 3.0 °F 1009.0 in Calm     98 % 0.0 in
01:27 2.3 °F 3.0 °F 1009.0 in Calm     98 % 0.0 in
01:32 2.1 °F 2.0 °F 1009.0 in West 4.0 mph 4.0 mph 98 % 0.0 in
01:37 2.1 °F 2.0 °F 1009.0 in Calm   6.9 mph 98 % 0.0 in
01:42 2.2 °F 2.0 °F 1009.0 in West 5.5 mph 6.9 mph 98 % 0.0 in
01:47 2.3 °F 3.0 °F 1009.0 in Calm   6.4 mph 98 % 0.0 in
01:52 2.2 °F 2.0 °F 1009.0 in Calm   6.4 mph 98 % 0.0 in
01:57 2.1 °F 2.0 °F 1009.0 in Calm   1.8 mph 98 % 0.0 in
02:02 2.0 °F 2.0 °F 1009.0 in Calm     98 % 0.0 in
02:07 2.1 °F 2.0 °F 1009.0 in Calm   1.4 mph 98 % 0.0 in
02:12 2.1 °F 2.0 °F 1009.0 in Calm   5.0 mph 98 % 0.0 in
02:17 2.3 °F 3.0 °F 1008.0 in Calm   5.0 mph 98 % 0.0 in
02:22 2.3 °F 3.0 °F 1008.0 in Calm   4.7 mph 98 % 0.3 in
02:27 2.4 °F 3.0 °F 1008.0 in Calm     98 % 0.3 in
02:32 2.5 °F 3.0 °F 1009.0 in Calm     98 % 0.3 in
02:37 2.5 °F 3.0 °F 1009.0 in Calm     98 % 0.3 in
02:42 2.6 °F 3.0 °F 1009.0 in Calm     98 % 0.3 in
02:48 2.6 °F 3.0 °F 1009.0 in WNW 2.6 mph 4.3 mph 98 % 0.3 in
02:53 2.7 °F 3.0 °F 1009.0 in WNW 5.0 mph 7.6 mph 98 % 0.3 in
02:58 2.7 °F 3.0 °F 1009.0 in Calm   7.6 mph 98 % 0.3 in
03:03 2.8 °F 3.0 °F 1009.0 in Calm   3.2 mph 98 % 0.3 in
03:08 2.8 °F 3.0 °F 1009.0 in West 3.5 mph 3.5 mph 98 % 0.3 in
03:13 2.8 °F 3.0 °F 1009.0 in West 1.8 mph 3.5 mph 98 % 0.5 in
03:18 2.9 °F 3.0 °F 1009.0 in West 4.0 mph 5.0 mph 98 % 0.8 in
03:23 3.0 °F 3.0 °F 1009.0 in Calm   5.0 mph 98 % 0.5 in
03:28 3.0 °F 3.0 °F 1009.0 in Calm   4.7 mph 98 % 0.5 in
03:33 3.0 °F 3.0 °F 1009.0 in Calm     98 % 0.5 in
03:38 2.9 °F 3.0 °F 1009.0 in Calm     98 % 0.5 in
03:43 2.9 °F 3.0 °F 1009.0 in Calm     98 % 0.5 in
03:48 2.9 °F 3.0 °F 1009.0 in Calm     98 % 0.5 in
03:53 2.8 °F 3.0 °F 1009.0 in Calm     98 % 0.5 in
03:58 2.8 °F 3.0 °F 1009.0 in Calm     98 % 0.5 in
04:03 2.7 °F 3.0 °F 1009.0 in Calm     98 % 0.8 in
04:08 2.7 °F 3.0 °F 1009.0 in Calm     98 % 0.8 in
04:13 2.7 °F 3.0 °F 1009.0 in Calm     98 % 0.3 in
04:18 2.7 °F 3.0 °F 1009.0 in Calm     98 % 0.3 in
04:23 2.6 °F 3.0 °F 1009.0 in Calm   3.5 mph 98 % 0.3 in
04:28 2.6 °F 3.0 °F 1008.0 in Calm   3.5 mph 98 % 0.3 in
04:33 2.4 °F 3.0 °F 1008.0 in Calm     98 % 0.3 in
04:38 2.3 °F 3.0 °F 1008.0 in Calm     98 % 0.3 in
04:43 2.1 °F 2.0 °F 1007.0 in Calm     98 % 0.3 in
04:48 2.0 °F 2.0 °F 1007.0 in Calm     98 % 0.3 in
04:53 2.0 °F 2.0 °F 1007.0 in Calm     98 % 0.3 in
04:58 2.0 °F 2.0 °F 1007.0 in Calm   2.1 mph 98 % 0.3 in
05:03 2.1 °F 2.0 °F 1007.0 in Calm   2.1 mph 98 % 0.0 in
05:08 2.1 °F 2.0 °F 1007.0 in Calm     98 % 0.0 in
05:13 2.1 °F 2.0 °F 1007.0 in Calm     98 % 0.0 in
05:18 2.2 °F 2.0 °F 1007.0 in Calm     98 % 0.0 in
05:23 2.2 °F 2.0 °F 1007.0 in Calm     98 % 0.0 in
05:28 2.2 °F 2.0 °F 1007.0 in Calm     98 % 0.0 in
05:33 2.3 °F 3.0 °F 1007.0 in Calm     98 % 0.0 in
05:39 2.3 °F 3.0 °F 1007.0 in Calm     98 % 0.0 in
05:44 2.3 °F 3.0 °F 1007.0 in Calm     98 % 0.0 in
05:49 2.3 °F 3.0 °F 1007.0 in Calm     98 % 0.0 in
05:54 2.3 °F 3.0 °F 1007.0 in Calm     98 % 0.0 in
05:59 2.3 °F 3.0 °F 1007.0 in Calm     98 % 0.0 in
06:04 2.4 °F 3.0 °F 1007.0 in Calm     98 % 0.0 in
06:09 2.5 °F 3.0 °F 1007.0 in Calm     98 % 0.0 in
06:14 2.6 °F 3.0 °F 1007.0 in Calm   4.3 mph 98 % 0.0 in
06:19 2.6 °F 3.0 °F 1007.0 in Calm   4.3 mph 98 % 0.0 in
06:24 2.7 °F 3.0 °F 1007.0 in Calm     98 % 0.0 in
06:29 2.7 °F 3.0 °F 1006.0 in Calm     98 % 0.0 in
06:34 2.7 °F 3.0 °F 1006.0 in Calm     98 % 0.0 in
06:39 2.7 °F 3.0 °F 1006.0 in Calm     98 % 0.0 in
06:44 2.8 °F 3.0 °F 1007.0 in Calm     98 % 0.0 in
06:49 2.8 °F 3.0 °F 1007.0 in Calm     98 % 0.0 in
06:54 2.8 °F 3.0 °F 1007.0 in Calm     98 % 0.0 in
06:59 2.8 °F 3.0 °F 1007.0 in Calm     98 % 0.0 in
07:05 2.9 °F 3.0 °F 1007.0 in Calm     98 % 0.0 in
07:10 2.9 °F 3.0 °F 1007.0 in Calm     98 % 0.0 in
07:15 2.9 °F 3.0 °F 1006.0 in Calm     98 % 0.0 in
07:20 2.9 °F 3.0 °F 1006.0 in Calm     98 % 0.0 in
07:25 3.0 °F 3.0 °F 1006.0 in Calm     98 % 0.0 in
07:30 3.0 °F 3.0 °F 1006.0 in Calm   4.7 mph 98 % 0.0 in
07:35 3.0 °F 3.0 °F 1006.0 in Calm   4.7 mph 98 % 0.0 in
07:40 3.0 °F 3.0 °F 1006.0 in Calm   1.4 mph 98 % 0.0 in
07:45 2.9 °F 3.0 °F 1006.0 in Calm     98 % 0.0 in
07:50 2.8 °F 3.0 °F 1006.0 in Calm     98 % 0.0 in
07:55 2.9 °F 3.0 °F 1006.0 in Calm     98 % 0.0 in
08:00 2.9 °F 3.0 °F 1007.0 in Calm     98 % 0.0 in
08:05 2.9 °F 3.0 °F 1007.0 in Calm     98 % 0.0 in
08:10 2.9 °F 3.0 °F 1007.0 in Calm     98 % 0.0 in
08:15 2.9 °F 3.0 °F 1007.0 in Calm     98 % 0.0 in
08:20 3.0 °F 3.0 °F 1007.0 in Calm     98 % 0.0 in
08:25 3.0 °F 3.0 °F 1007.0 in Calm     98 % 0.0 in
08:30 3.0 °F 3.0 °F 1007.0 in Calm     98 % 0.0 in
08:35 3.0 °F 3.0 °F 1007.0 in Calm     98 % 0.0 in
08:40 3.0 °F 3.0 °F 1007.0 in Calm     98 % 0.0 in
08:45 3.0 °F 3.0 °F 1007.0 in Calm   4.3 mph 98 % 0.0 in
08:50 3.0 °F 3.0 °F 1007.0 in Calm   4.3 mph 98 % 0.0 in
08:55 3.0 °F 3.0 °F 1007.0 in Calm     98 % 0.0 in
09:00 3.0 °F 3.0 °F 1007.0 in Calm   1.4 mph 98 % 0.0 in
09:06 3.0 °F 3.0 °F 1007.0 in Calm   1.4 mph 98 % 0.0 in
09:11 3.0 °F 3.0 °F 1007.0 in Calm     98 % 0.0 in
09:16 3.1 °F 3.0 °F 1007.0 in Calm     98 % 0.0 in
09:21 3.1 °F 3.0 °F 1007.0 in Calm     98 % 0.0 in
09:26 3.1 °F 3.0 °F 1007.0 in Calm     98 % 0.0 in
09:31 3.1 °F 3.0 °F 1006.0 in Calm     98 % 0.0 in
09:36 3.1 °F 3.0 °F 1006.0 in Calm     98 % 0.0 in
09:41 3.2 °F 3.0 °F 1006.0 in Calm     98 % 0.0 in
09:46 3.3 °F 3.0 °F 1006.0 in Calm     98 % 0.0 in
09:51 3.3 °F 3.0 °F 1006.0 in Calm     98 % 0.0 in
09:56 3.4 °F 3.0 °F 1006.0 in Calm   7.9 mph 98 % 0.0 in
10:01 3.5 °F 4.0 °F 1007.0 in Calm   7.9 mph 98 % 0.0 in
10:06 3.5 °F 4.0 °F 1007.0 in Calm     98 % 0.0 in
10:11 3.6 °F 4.0 °F 1007.0 in Calm   6.4 mph 98 % 0.0 in
10:17 3.6 °F 4.0 °F 1006.0 in Calm   6.4 mph 98 % 0.0 in
10:22 3.6 °F 4.0 °F 1006.0 in Calm   3.2 mph 98 % 0.0 in
10:27 3.7 °F 4.0 °F 1006.0 in Calm   4.7 mph 98 % 0.0 in
10:32 3.8 °F 4.0 °F 1006.0 in Calm   4.7 mph 98 % 0.0 in
10:37 3.9 °F 4.0 °F 1006.0 in Calm   5.8 mph 98 % 0.0 in
10:42 3.9 °F 4.0 °F 1006.0 in WSW 5.8 mph 8.7 mph 98 % 0.0 in
10:47 4.0 °F 4.0 °F 1006.0 in Calm   8.7 mph 98 % 0.0 in
10:52 4.1 °F 4.0 °F 1006.0 in Calm   6.9 mph 98 % 0.0 in
10:57 4.2 °F 4.0 °F 1006.0 in SSW 2.1 mph 5.5 mph 98 % 0.0 in
11:02 4.3 °F 4.0 °F 1006.0 in Calm   5.5 mph 98 % 0.0 in
11:07 4.5 °F 5.0 °F 1006.0 in SW 4.3 mph 5.5 mph 98 % 0.0 in
11:12 4.6 °F 5.0 °F 1006.0 in Calm   6.9 mph 98 % 0.0 in
11:17 4.7 °F 5.0 °F 1006.0 in SSW 5.0 mph 6.9 mph 98 % 0.0 in
11:22 4.9 °F 5.0 °F 1006.0 in SSW 3.2 mph 5.5 mph 98 % 0.0 in
11:27 5.0 °F 5.0 °F 1006.0 in Calm   4.7 mph 98 % 0.0 in
11:32 5.1 °F 5.0 °F 1006.0 in SW 4.0 mph 5.8 mph 98 % 0.0 in
11:38 5.2 °F 5.0 °F 1006.0 in Calm   5.8 mph 98 % 0.0 in
11:43 5.2 °F 5.0 °F 1006.0 in Calm   5.8 mph 98 % 0.0 in
11:48 5.3 °F 6.0 °F 1005.0 in Calm   7.9 mph 98 % 0.0 in
11:53 5.3 °F 6.0 °F 1005.0 in SW 1.4 mph 7.9 mph 98 % 0.0 in
11:58 5.4 °F 6.0 °F 1005.0 in Calm   6.9 mph 98 % 0.0 in
12:03 5.4 °F 6.0 °F 1006.0 in SW 2.6 mph 9.3 mph 98 % 0.0 in
12:08 5.5 °F 6.0 °F 1006.0 in Calm   9.3 mph 98 % 0.0 in
12:13 5.6 °F 6.0 °F 1006.0 in WSW 6.4 mph 9.3 mph 98 % 0.0 in
12:18 5.7 °F 6.0 °F 1005.0 in WSW 9.0 mph 9.3 mph 98 % 0.0 in
12:23 5.7 °F 6.0 °F 1005.0 in WSW 5.8 mph 10.1 mph 98 % 0.0 in
12:28 5.8 °F 6.0 °F 1005.0 in Calm   10.1 mph 98 % 0.0 in
12:33 5.9 °F 6.0 °F 1005.0 in WSW 7.6 mph 9.7 mph 98 % 0.0 in
12:38 6.0 °F 6.0 °F 1005.0 in SW 5.5 mph 7.6 mph 98 % 0.0 in
12:43 6.0 °F 6.0 °F 1005.0 in SW 6.9 mph 9.0 mph 98 % 0.0 in
12:48 6.1 °F 6.0 °F 1005.0 in WSW 6.9 mph 9.0 mph 98 % 0.0 in
12:53 6.3 °F 6.0 °F 1005.0 in SW 3.2 mph 9.0 mph 98 % 0.0 in
12:58 6.4 °F 6.0 °F 1005.0 in Calm   8.7 mph 98 % 0.0 in
13:03 6.5 °F 7.0 °F 1005.0 in Calm   7.9 mph 98 % 0.0 in
13:08 6.6 °F 7.0 °F 1005.0 in Calm   8.7 mph 98 % 0.0 in
13:13 6.7 °F 7.0 °F 1005.0 in WSW 6.4 mph 9.0 mph 98 % 0.0 in
13:18 6.7 °F 7.0 °F 1005.0 in WSW 10.5 mph 10.5 mph 98 % 0.0 in
13:23 6.6 °F 7.0 °F 1005.0 in WSW 9.3 mph 14.0 mph 98 % 0.0 in
13:28 6.7 °F 7.0 °F 1003.9 in WSW 10.1 mph 14.8 mph 98 % 0.0 in
13:33 6.7 °F 7.0 °F 1003.9 in SW 10.1 mph 14.8 mph 98 % 0.0 in
13:38 6.7 °F 7.0 °F 1003.9 in SW 12.6 mph 12.6 mph 98 % 0.0 in
13:44 6.6 °F 7.0 °F 1003.9 in West 15.4 mph 15.4 mph 98 % 0.0 in
13:49 6.4 °F 6.0 °F 1003.9 in WSW 12.6 mph 15.8 mph 97 % 0.0 in
13:54 6.3 °F 6.0 °F 1003.9 in West 10.1 mph 17.2 mph 94 % 0.0 in
13:59 6.3 °F 5.0 °F 1003.9 in WSW 12.2 mph 17.2 mph 92 % 0.0 in
14:04 6.4 °F 5.0 °F 1003.9 in West 14.3 mph 14.3 mph 91 % 0.0 in
14:09 6.4 °F 5.0 °F 1003.9 in Calm   14.3 mph 91 % 0.0 in
14:14 6.4 °F 5.0 °F 1005.0 in WSW 15.8 mph 15.8 mph 90 % 0.0 in
14:19 6.4 °F 5.0 °F 1005.0 in SW 7.9 mph 15.8 mph 90 % 0.0 in
14:24 6.5 °F 5.0 °F 1005.0 in SW 10.5 mph 15.8 mph 90 % 0.0 in
14:29 6.6 °F 6.0 °F 1005.0 in WSW 9.7 mph 12.6 mph 91 % 0.0 in
14:34 6.7 °F 5.0 °F 1005.0 in WSW 9.3 mph 11.9 mph 90 % 0.0 in
14:39 6.7 °F 5.0 °F 1005.0 in WSW 9.7 mph 12.2 mph 89 % 0.0 in
14:44 6.7 °F 5.0 °F 1005.0 in WSW 10.5 mph 12.2 mph 89 % 0.0 in
14:49 6.7 °F 5.0 °F 1005.0 in WSW 9.7 mph 13.0 mph 87 % 0.0 in
14:54 6.7 °F 5.0 °F 1005.0 in Calm   13.0 mph 87 % 0.0 in
14:59 6.7 °F 5.0 °F 1005.0 in SSW 5.8 mph 10.5 mph 87 % 0.0 in
15:04 6.6 °F 5.0 °F 1005.0 in WSW 7.9 mph 10.8 mph 87 % 0.0 in
15:09 6.5 °F 5.0 °F 1005.0 in SW 13.7 mph 13.7 mph 86 % 0.0 in
15:14 6.4 °F 4.0 °F 1005.0 in WSW 9.7 mph 13.7 mph 86 % 0.0 in
15:19 6.4 °F 4.0 °F 1005.0 in Calm   11.9 mph 86 % 0.0 in
15:25 6.4 °F 4.0 °F 1005.0 in Calm   11.9 mph 86 % 0.0 in
15:30 6.4 °F 4.0 °F 1005.0 in WSW 9.7 mph 10.1 mph 86 % 0.0 in
15:35 6.4 °F 4.0 °F 1005.0 in WSW 9.0 mph 10.1 mph 86 % 0.0 in
15:40 6.3 °F 4.0 °F 1005.0 in WSW 9.3 mph 11.9 mph 86 % 0.0 in
15:45 6.1 °F 4.0 °F 1005.0 in WSW 9.3 mph 11.9 mph 86 % 0.0 in
15:50 6.0 °F 4.0 °F 1005.0 in SW 7.9 mph 11.9 mph 86 % 0.0 in
15:55 6.0 °F 4.0 °F 1005.0 in Calm   10.5 mph 87 % 0.0 in
16:00 5.8 °F 4.0 °F 1005.0 in WSW 4.3 mph 9.0 mph 87 % 0.0 in
16:05 5.7 °F 4.0 °F 1005.0 in Calm   9.3 mph 87 % 0.0 in
16:10 5.6 °F 4.0 °F 1005.0 in Calm   9.3 mph 87 % 0.0 in
16:15 5.6 °F 4.0 °F 1005.0 in Calm   9.0 mph 87 % 0.0 in
16:20 5.5 °F 4.0 °F 1005.0 in Calm   7.6 mph 87 % 0.0 in
16:26 5.4 °F 4.0 °F 1005.0 in Calm   4.0 mph 87 % 0.0 in
16:31 5.4 °F 4.0 °F 1005.0 in Calm   4.0 mph 88 % 0.0 in
16:36 5.4 °F 4.0 °F 1005.0 in Calm   1.4 mph 88 % 0.0 in
16:41 5.4 °F 4.0 °F 1005.0 in Calm     88 % 0.0 in
16:46 5.4 °F 4.0 °F 1005.0 in Calm     88 % 0.0 in
16:51 5.4 °F 4.0 °F 1005.0 in Calm     88 % 0.0 in
16:56 5.4 °F 4.0 °F 1005.0 in Calm     87 % 0.0 in
17:01 5.3 °F 4.0 °F 1005.0 in Calm     87 % 0.0 in
17:06 5.3 °F 4.0 °F 1005.0 in Calm     87 % 0.0 in
17:11 5.2 °F 3.0 °F 1005.0 in Calm     87 % 0.0 in
17:16 5.1 °F 3.0 °F 1005.0 in Calm     87 % 0.0 in
17:21 5.1 °F 3.0 °F 1005.0 in Calm   1.4 mph 87 % 0.0 in
17:26 5.0 °F 3.0 °F 1005.0 in Calm   1.4 mph 88 % 0.0 in
17:32 4.9 °F 3.0 °F 1005.0 in Calm     89 % 0.0 in
17:37 4.8 °F 3.0 °F 1005.0 in Calm     89 % 0.0 in
17:42 4.8 °F 3.0 °F 1005.0 in Calm     89 % 0.0 in
17:47 4.7 °F 3.0 °F 1005.0 in Calm     90 % 0.0 in
17:52 4.7 °F 3.0 °F 1005.0 in Calm     90 % 0.0 in
17:57 4.7 °F 3.0 °F 1005.0 in Calm   1.8 mph 91 % 0.0 in
18:02 4.6 °F 3.0 °F 1005.0 in Calm   1.8 mph 91 % 0.0 in
18:07 4.6 °F 3.0 °F 1005.0 in Calm     92 % 0.3 in
18:12 4.6 °F 3.0 °F 1005.0 in Calm     92 % 0.3 in
18:17 4.6 °F 3.0 °F 1005.0 in Calm     92 % 0.3 in
18:22 4.5 °F 4.0 °F 1005.0 in Calm     93 % 0.3 in
18:27 4.5 °F 4.0 °F 1005.0 in Calm     93 % 0.3 in
18:32 4.4 °F 3.0 °F 1005.0 in Calm   1.4 mph 93 % 0.3 in
18:37 4.4 °F 3.0 °F 1005.0 in Calm   1.4 mph 93 % 0.3 in
18:42 4.4 °F 3.0 °F 1005.0 in Calm     94 % 0.3 in
18:47 4.3 °F 3.0 °F 1005.0 in Calm     94 % 0.3 in
18:52 4.3 °F 3.0 °F 1005.0 in Calm   4.0 mph 94 % 0.3 in
18:57 4.2 °F 4.0 °F 1005.0 in NNE 5.0 mph 6.9 mph 95 % 0.3 in
19:02 4.2 °F 4.0 °F 1005.0 in NNE 5.0 mph 6.9 mph 95 % 0.3 in
19:07 4.1 °F 3.0 °F 1005.0 in Calm   6.9 mph 95 % 0.3 in
19:12 4.1 °F 4.0 °F 1005.0 in Calm   7.2 mph 96 % 0.3 in
19:18 4.1 °F 4.0 °F 1005.0 in Calm   7.2 mph 96 % 0.3 in
19:23 4.0 °F 4.0 °F 1005.0 in Calm   6.9 mph 96 % 0.3 in
19:28 3.9 °F 4.0 °F 1005.0 in Calm   6.9 mph 96 % 0.3 in
19:33 3.9 °F 4.0 °F 1006.0 in Calm   3.2 mph 96 % 0.3 in
19:38 3.8 °F 3.0 °F 1006.0 in Calm   3.2 mph 97 % 0.3 in
19:43 3.8 °F 3.0 °F 1006.0 in Calm   1.8 mph 97 % 0.3 in
19:48 3.8 °F 3.0 °F 1006.0 in Calm     97 % 0.3 in
19:53 3.8 °F 3.0 °F 1006.0 in Calm     97 % 0.3 in
19:58 3.8 °F 4.0 °F 1006.0 in Calm     98 % 0.8 in
20:03 3.8 °F 4.0 °F 1006.0 in Calm     98 % 0.8 in
20:08 3.7 °F 4.0 °F 1006.0 in ENE 7.9 mph 7.9 mph 98 % 0.3 in
20:13 3.7 °F 4.0 °F 1006.0 in Calm   9.3 mph 98 % 0.3 in
20:18 3.7 °F 4.0 °F 1006.0 in Calm   9.3 mph 98 % 0.3 in
20:23 3.7 °F 4.0 °F 1006.0 in Calm   5.0 mph 98 % 0.3 in
20:28 3.7 °F 4.0 °F 1006.0 in Calm   5.8 mph 98 % 0.3 in
20:33 3.7 °F 4.0 °F 1006.0 in Calm   5.8 mph 98 % 0.3 in
20:38 3.7 °F 4.0 °F 1006.0 in NE 3.2 mph 4.7 mph 98 % 0.3 in
20:43 3.6 °F 4.0 °F 1007.0 in Calm   6.1 mph 98 % 0.8 in
20:49 3.6 °F 4.0 °F 1007.0 in Calm   6.1 mph 98 % 0.8 in
20:54 3.6 °F 4.0 °F 1007.0 in Calm     98 % 0.8 in
20:59 3.5 °F 4.0 °F 1007.0 in Calm   5.8 mph 98 % 0.3 in
21:04 3.5 °F 4.0 °F 1007.0 in Calm   5.8 mph 98 % 0.3 in
21:09 3.5 °F 4.0 °F 1007.0 in Calm     98 % 0.3 in
21:14 3.5 °F 4.0 °F 1007.0 in Calm     98 % 0.3 in
21:19 3.4 °F 3.0 °F 1007.0 in ENE 4.0 mph 4.0 mph 98 % 0.3 in
21:24 3.4 °F 3.0 °F 1007.0 in Calm   4.0 mph 98 % 0.3 in
21:29 3.4 °F 3.0 °F 1007.0 in Calm     98 % 0.3 in
21:34 3.4 °F 3.0 °F 1007.0 in Calm     98 % 0.3 in
21:39 3.4 °F 3.0 °F 1007.0 in Calm     98 % 0.3 in
21:44 3.3 °F 3.0 °F 1008.0 in Calm     98 % 0.0 in
21:49 3.3 °F 3.0 °F 1008.0 in Calm     98 % 0.0 in
21:54 3.4 °F 3.0 °F 1008.0 in Calm     98 % 0.0 in
21:59 3.4 °F 3.0 °F 1008.0 in Calm     98 % 0.0 in
22:04 3.4 °F 3.0 °F 1007.0 in Calm     98 % 0.0 in
22:09 3.3 °F 3.0 °F 1007.0 in Calm     98 % 0.0 in
22:14 3.3 °F 3.0 °F 1007.0 in Calm     98 % 0.0 in
22:19 3.2 °F 3.0 °F 1007.0 in Calm     98 % 0.0 in
22:24 3.1 °F 3.0 °F 1007.0 in Calm     98 % 0.0 in
22:29 3.0 °F 3.0 °F 1008.0 in Calm     98 % 0.0 in
22:34 3.0 °F 3.0 °F 1008.0 in Calm     98 % 0.0 in
22:39 2.9 °F 3.0 °F 1008.0 in Calm     98 % 0.0 in
22:44 2.8 °F 3.0 °F 1008.0 in Calm   2.1 mph 98 % 0.0 in
22:49 2.7 °F 3.0 °F 1008.0 in North 1.8 mph 3.2 mph 98 % 0.0 in
22:54 2.7 °F 3.0 °F 1008.0 in Calm   3.2 mph 98 % 0.0 in
22:59 2.6 °F 3.0 °F 1008.0 in Calm     98 % 0.0 in
23:05 2.5 °F 3.0 °F 1008.0 in Calm     98 % 0.0 in
23:10 2.4 °F 3.0 °F 1008.0 in Calm     98 % 0.0 in
23:15 2.4 °F 3.0 °F 1009.0 in Calm     98 % 0.0 in
23:20 2.3 °F 3.0 °F 1009.0 in Calm     98 % 0.0 in
23:25 2.3 °F 3.0 °F 1009.0 in Calm     98 % 0.0 in
23:30 2.3 °F 3.0 °F 1009.0 in Calm     98 % 0.0 in
23:35 2.2 °F 2.0 °F 1009.0 in Calm     98 % 0.0 in
23:40 2.2 °F 2.0 °F 1009.0 in Calm     98 % 0.0 in
23:45 2.1 °F 2.0 °F 1009.0 in Calm     98 % 0.0 in
23:50 2.1 °F 2.0 °F 1009.0 in Calm   3.2 mph 98 % 0.0 in
23:55 2.0 °F 2.0 °F 1009.0 in Calm   5.0 mph 98 % 0.0 in
Le Gheer Warneton
Courtoisie de Weather Underground - 2.25 mb

Mise a jour : 23/02/2018 07:41:11
Généré par Cumulus 1.9.4 (1099)